Volver al catálogo

STARLINK-5235

ActivoComunicacionesVLEO
NORAD 54185·PAYLOAD·🇺🇸 United States

Lanzado Oct 28, 2022 desde Vandenberg Space Force Base

Loading…

Próximos Pases (próximas 24 horas)

TLE

ActualizadoSource: CelesTrak SupGP

Época: Sep 15, 2026, 02:42 UTC

1 54185C 22141AE  26258.11298611 -.00035043  00000+0 -10355-2 0  2585
2 54185  53.1580 218.9890 0001310  88.3236 348.1492 15.34402636    15

Sigue STARLINK-5235 en tiempo real con AllMySat

Download on the App Store